Theta_e
277 277 277 277 277 277 277 277 277 277 277 277 276 276 275 275 273 271 272 273 274 276 278 276 278 280 281 280 282 281 281 282 283 282 282 281 281 283 286 287 290 292 293 293 293 293 293 294 294 294 295 297 299 301 302 302 302 303 303 307 308 308 308 307 308 308 310 312 312 313 314 317 323 328
276 277 277 277 277 277 276 277 276 277 276 276 276 276 276 277 275 274 272 272 275 276 277 278 278 280 278 280 280 280 280 283 282 281 281 280 280 283 285 287 289 290 290 291 292 292 292 292 293 293 293 295 296 298 299 300 302 304 305 305 308 309 309 309 310 310 311 312 314 314 314 315 319 326
276 275 275 275 275 276 276 276 276 276 276 276 276 276 276 276 276 275 274 272 275 278 276 277 278 278 278 279 279 279 279 281 281 280 279 279 281 282 282 284 286 287 288 289 290 290 290 291 291 292 292 293 294 295 297 298 299 301 303 305 306 307 309 309 309 309 310 311 313 314 315 315 317 323
275 274 273 274 274 275 274 274 275 275 275 275 276 277 277 277 277 277 275 273 273 277 277 277 277 277 277 276 275 276 276 278 279 278 278 278 281 279 279 281 283 284 287 288 288 289 289 290 290 290 290 291 292 293 294 295 297 297 300 303 305 305 306 307 307 308 308 308 309 310 313 315 316 320
273 273 272 273 273 273 273 274 274 273 273 273 274 274 274 274 275 274 273 272 272 274 276 276 275 275 275 273 274 273 274 275 276 278 277 277 276 277 277 278 281 283 285 286 287 287 288 289 289 290 290 291 292 293 293 294 295 296 300 301 303 304 305 306 307 306 307 307 307 308 310 313 315 317
273 272 271 272 272 273 272 271 271 271 271 271 271 271 272 271 271 272 271 271 270 270 273 273 274 272 273 271 273 273 273 274 275 275 275 275 276 276 277 278 278 282 283 285 286 287 288 288 289 290 290 291 292 293 294 294 294 296 297 298 299 300 303 304 306 305 306 307 306 308 308 309 314 315
271 271 271 271 271 271 270 271 270 271 270 271 270 270 271 270 271 271 271 270 269 269 269 271 270 271 271 271 271 273 273 274 274 273 273 274 276 277 277 277 277 281 283 285 286 286 287 288 289 290 290 291 291 292 293 294 294 294 296 297 297 297 299 302 303 305 306 307 307 307 309 308 312 314
271 270 270 270 270 270 269 269 269 270 270 270 270 270 270 270 270 270 271 271 269 269 268 269 270 271 271 271 272 273 273 273 272 273 273 274 275 275 276 277 276 279 283 284 285 286 287 288 289 290 291 291 292 293 293 294 294 294 295 295 295 296 297 301 301 302 303 305 307 307 308 308 309 313
271 270 269 269 269 269 268 268 268 268 268 269 269 269 269 270 270 270 271 270 270 269 268 269 271 271 271 272 272 272 272 272 272 273 272 273 274 274 275 276 277 280 282 283 284 285 286 287 288 288 290 291 292 293 294 294 294 294 295 295 295 296 295 300 301 301 302 303 304 306 307 309 310 312
270 270 269 269 269 268 267 267 268 268 268 268 269 269 269 270 270 270 270 271 270 270 269 269 269 271 271 271 272 272 272 272 271 271 272 273 274 274 274 275 276 278 278 279 280 281 281 282 283 285 287 289 291 292 293 293 294 294 295 296 296 296 297 299 300 300 300 302 303 306 308 309 310 311
270 270 270 269 269 269 268 268 268 269 269 269 269 270 270 270 270 270 270 270 270 270 269 270 270 270 271 271 270 272 273 273 272 271 271 271 273 274 274 274 276 277 277 279 281 280 281 282 282 284 287 289 290 292 292 292 293 293 293 294 296 297 298 299 299 299 300 300 302 304 305 306 309 311
270 270 270 270 270 270 270 270 270 270 270 271 270 271 271 271 270 270 270 270 270 270 270 269 269 270 271 271 272 273 273 272 271 273 272 270 271 272 273 274 273 275 275 275 276 279 280 281 282 285 287 289 290 289 289 290 290 292 293 294 295 296 298 299 299 299 299 299 300 302 304 304 305 308
271 271 271 271 271 272 273 275 275 275 275 273 272 272 271 270 270 271 271 270 270 270 270 269 271 270 270 270 271 271 271 271 270 272 272 271 272 272 272 273 275 275 274 275 276 276 278 279 282 283 282 282 285 286 286 286 287 288 291 294 296 297 297 299 300 299 299 299 300 301 302 303 304 305
272 272 272 273 275 276 276 276 277 278 278 278 276 275 275 274 273 273 272 271 271 270 268 269 269 269 269 270 271 271 272 273 273 273 272 271 272 272 272 273 274 276 275 275 275 277 280 281 280 280 280 282 283 282 283 284 285 287 289 292 296 297 298 298 299 299 300 300 300 300 301 302 303 304
272 273 273 273 274 275 275 274 276 277 277 278 278 278 279 278 276 274 273 273 273 272 272 272 272 271 271 272 273 273 273 273 273 273 273 272 272 271 270 269 273 277 277 276 276 278 279 279 279 280 280 281 281 282 282 285 286 287 289 293 295 295 296 298 299 300 300 300 300 301 301 302 302 303
273 273 273 273 273 273 273 273 273 275 277 277 278 278 279 279 279 279 276 274 273 273 272 272 272 272 272 272 273 273 273 273 273 273 273 273 272 271 271 271 271 276 279 277 276 275 278 279 278 278 279 280 280 281 283 286 287 289 291 293 294 295 296 297 299 299 300 300 301 301 301 301 302 303
273 273 272 272 272 272 275 274 273 273 273 276 278 278 278 279 279 279 280 280 277 276 274 273 272 273 273 272 273 274 273 274 272 273 272 272 272 272 272 273 274 276 279 276 274 273 275 277 277 276 278 279 280 281 284 286 288 289 291 292 294 295 296 297 297 298 300 300 301 301 301 302 302 302
272 272 271 271 271 272 272 273 273 273 274 274 274 274 274 274 276 278 279 279 279 278 275 274 272 273 274 273 274 275 276 273 272 272 271 272 271 271 271 273 274 275 276 274 274 273 274 277 276 275 277 280 280 282 285 288 289 291 292 293 294 294 295 295 296 297 297 299 301 301 301 301 302 302
272 271 271 271 271 272 272 273 274 274 275 275 275 275 275 275 276 275 275 275 275 275 275 275 274 275 275 275 275 275 276 275 274 274 273 272 272 273 274 274 274 274 276 276 275 270 274 277 276 276 278 280 282 283 286 287 288 290 292 293 294 294 295 295 295 296 297 298 300 301 301 301 302 302
272 272 272 272 272 272 273 275 278 278 276 275 274 274 274 274 275 275 277 279 279 277 276 276 276 276 276 278 277 277 277 276 275 275 275 274 274 272 271 270 273 273 276 277 275 273 274 277 276 276 279 280 280 282 283 286 287 288 290 292 294 294 294 294 295 296 297 298 299 301 301 301 301 302
272 273 273 273 272 273 274 276 278 278 278 274 274 274 274 274 274 274 275 278 279 279 279 279 279 280 281 281 281 282 282 279 279 277 275 274 274 272 270 271 272 273 276 277 277 275 274 276 277 277 279 279 280 280 281 282 285 287 288 292 293 293 293 294 295 297 297 298 299 301 301 301 301 301
273 273 275 276 274 274 274 276 277 278 276 274 274 274 273 272 272 273 274 273 273 277 278 278 279 279 279 279 280 280 280 280 280 275 273 274 274 272 272 271 272 274 275 277 279 276 275 277 278 277 278 279 280 280 281 282 283 287 288 291 292 292 293 294 296 296 296 296 298 300 301 301 300 302
273 273 275 276 276 275 275 276 277 278 277 274 274 273 272 271 270 271 271 271 271 273 273 272 271 271 273 272 272 273 278 279 278 276 275 275 274 272 272 272 272 272 273 277 280 275 276 276 278 278 276 275 279 281 282 283 284 285 286 287 288 291 293 294 294 294 295 295 297 299 301 301 301 303
273 274 274 274 275 275 275 276 277 278 278 274 273 273 271 269 268 270 271 273 273 270 269 268 269 269 270 270 271 272 273 274 275 276 276 276 275 273 273 272 272 270 271 276 280 276 276 277 276 278 277 273 272 277 280 281 283 286 287 287 287 290 292 292 292 293 294 295 296 297 300 301 301 303
272 272 272 271 273 274 275 276 277 277 277 276 273 271 269 269 272 275 272 271 271 267 267 267 268 268 269 269 270 271 273 274 276 276 277 277 276 275 273 272 271 271 273 275 279 276 274 275 275 276 276 276 276 276 278 280 282 285 287 287 287 288 288 289 290 290 293 294 296 298 299 301 302 303
271 271 270 270 272 274 276 276 276 276 275 275 271 270 274 276 276 272 271 268 266 266 266 266 267 267 268 268 269 270 271 272 274 276 277 277 277 276 276 274 273 271 272 277 280 277 275 274 275 275 276 275 275 277 276 278 281 282 284 286 287 287 288 288 289 290 291 292 294 297 300 301 302 302
270 270 270 271 273 275 275 274 274 274 274 272 270 274 275 275 275 272 266 266 265 265 265 266 266 266 267 267 268 269 269 271 272 273 274 275 276 277 278 278 277 276 277 278 279 278 277 276 278 276 275 276 275 277 278 277 279 283 284 285 286 287 288 288 289 289 290 291 293 296 301 302 302 303
270 269 270 271 274 274 273 273 273 273 272 270 272 273 273 273 271 266 265 264 264 265 265 265 265 266 267 267 268 268 270 270 271 271 272 272 273 274 274 277 278 278 278 278 278 278 278 277 277 278 278 277 275 275 275 280 281 282 282 285 286 287 288 288 288 288 289 291 292 295 300 302 303 304
270 272 273 273 272 272 272 272 271 269 269 271 272 272 272 270 265 264 263 264 264 264 265 265 265 266 267 268 268 270 270 270 271 271 271 272 273 274 274 275 276 277 278 279 280 279 279 278 278 279 279 279 277 277 278 278 280 281 283 283 283 285 287 288 288 288 289 290 290 292 299 303 303 303
272 271 271 270 270 269 268 267 266 265 266 270 270 270 269 265 263 263 263 264 264 264 265 265 265 266 267 268 269 269 270 269 269 270 270 270 271 272 272 273 274 277 279 280 280 280 280 280 280 280 279 279 279 278 279 279 279 281 283 283 284 286 287 287 287 288 288 289 291 293 299 305 305 304
265 266 266 267 268 268 268 268 268 267 267 264 264 263 263 263 263 263 263 264 264 265 264 265 265 266 267 268 268 268 268 268 269 270 270 269 269 270 270 270 270 271 275 278 280 281 281 281 281 281 279 279 280 280 281 281 280 281 282 284 285 282 285 287 287 288 289 290 290 291 294 304 305 303
265 263 265 264 262 262 261 261 260 261 261 262 262 262 262 262 263 265 268 268 265 265 266 266 266 266 266 266 266 267 267 268 269 270 269 268 267 268 268 267 267 269 271 273 276 281 283 282 282 282 281 281 279 281 282 282 281 282 283 285 285 285 286 285 286 287 288 289 288 288 291 300 305 306
261 259 258 255 258 257 258 258 258 259 259 260 260 261 261 262 262 262 262 262 263 264 264 264 264 265 265 266 267 267 267 267 268 269 268 268 267 267 268 266 267 267 268 270 273 277 281 283 284 283 283 283 283 283 282 280 282 283 283 284 284 284 285 286 286 286 288 288 287 288 289 298 306 307
255 255 254 255 255 256 257 256 257 258 258 258 259 260 263 262 261 262 262 262 263 264 264 264 264 264 265 266 267 267 266 267 267 268 268 267 267 266 265 265 265 267 268 269 271 274 278 282 283 284 284 284 285 285 284 282 282 283 283 284 284 284 285 286 287 287 288 287 287 287 288 295 305 308
254 254 254 254 255 256 256 256 257 258 258 258 259 259 260 260 261 262 262 262 263 264 264 264 265 265 265 266 266 266 266 266 266 266 267 267 266 265 265 264 265 266 266 267 269 272 275 279 281 281 282 282 282 284 286 285 283 283 284 284 284 284 284 286 286 287 288 288 289 287 288 293 302 307
255 254 253 253 254 255 255 256 257 257 258 258 258 259 259 260 261 261 261 263 263 263 264 264 265 265 266 266 266 266 266 266 265 265 265 265 265 265 265 265 265 265 266 267 268 271 273 275 279 279 278 279 278 278 280 286 286 284 283 283 284 284 285 286 286 287 287 287 288 288 287 290 300 305
254 253 252 252 253 254 254 255 256 257 258 258 258 259 259 259 260 261 263 264 263 263 264 265 265 265 266 266 266 266 266 265 264 264 264 264 264 264 264 264 265 265 265 266 268 269 272 274 278 279 278 277 277 277 279 282 285 286 285 283 284 285 285 285 285 285 287 288 288 288 289 293 300 305
252 252 252 253 253 254 255 255 256 257 257 258 258 259 259 260 261 261 263 262 262 263 264 264 265 266 266 267 266 265 265 265 265 264 264 264 263 263 263 263 264 264 264 265 267 268 270 271 273 277 279 277 277 278 278 281 282 284 286 286 284 285 286 285 285 285 286 288 288 289 292 295 301 305
251 252 252 251 253 253 254 255 255 256 256 257 257 258 259 259 260 261 261 261 263 263 264 264 265 265 266 266 266 266 265 264 264 263 263 263 263 263 263 263 263 264 264 264 266 267 269 270 273 277 279 279 278 279 281 281 281 284 287 287 286 285 286 286 285 286 286 287 288 291 294 300 304 301
252 252 251 252 252 253 253 254 255 255 256 257 257 258 258 259 259 259 260 262 263 264 264 264 265 266 266 267 266 265 265 264 264 263 263 263 264 264 263 264 264 264 264 264 264 266 267 269 272 275 279 282 283 284 284 284 285 286 286 287 287 286 287 286 286 286 287 288 290 291 294 299 300 303
251 250 250 251 251 252 253 253 254 255 256 257 257 259 259 258 259 259 261 263 264 263 263 264 265 266 266 266 266 265 264 264 264 264 264 264 264 264 264 264 263 264 263 263 264 265 266 269 273 277 278 280 283 286 284 282 281 283 284 286 288 288 287 288 289 288 288 290 291 292 296 298 300 301
249 249 250 249 250 252 252 253 254 255 256 257 257 257 258 258 259 263 263 263 262 263 264 264 265 266 266 266 265 265 264 263 263 263 264 263 263 263 264 264 263 263 263 263 264 265 268 270 272 274 276 278 280 281 280 282 281 283 284 286 287 288 288 287 287 288 291 291 291 292 297 299 301 300
250 249 250 251 251 252 252 253 253 254 255 256 256 257 257 258 259 260 260 262 262 263 264 265 266 267 266 266 265 265 264 264 264 263 263 263 263 263 262 263 263 263 264 264 265 266 267 269 270 271 274 276 279 281 280 282 283 283 284 285 286 288 289 289 288 288 288 289 291 294 300 300 299 297
248 248 249 249 250 251 251 252 252 253 254 255 256 257 257 258 259 260 261 262 262 263 264 265 266 267 266 266 265 265 264 264 264 264 263 263 263 263 263 263 263 264 264 264 265 266 267 269 270 271 272 274 277 280 281 282 283 284 284 285 286 287 287 290 291 289 288 288 289 290 290 295 299 298
248 248 248 249 250 250 251 252 252 253 253 254 256 256 258 258 259 260 261 262 263 264 265 265 266 267 266 265 265 264 264 266 265 264 264 263 263 263 263 263 263 263 264 264 264 265 267 268 269 272 273 275 278 280 282 283 284 284 285 285 285 286 287 289 290 291 289 288 289 289 290 291 295 297
Wind_Speed
4 4 4 5 5 3 2 2 2 3 2 3 3 4 6 7 11 16 18 22 13 7 3 10 1 2 9 3 4 11 10 12 16 13 13 13 12 19 31 34 32 28 27 27 28 30 31 31 32 32 32 32 31 30 29 29 29 31 31 29 33 37 36 34 33 32 30 30 30 31 29 27 27 26
3 4 4 4 5 2 1 2 1 1 1 2 3 5 5 5 9 11 15 23 14 8 8 5 12 6 4 10 12 9 12 14 17 13 13 12 15 29 32 30 30 30 32 33 34 34 34 33 33 32 32 33 33 33 32 31 31 31 32 33 32 35 34 33 32 32 32 31 30 29 29 28 28 27
3 4 4 3 3 1 0 1 2 2 2 4 4 4 5 6 8 11 12 17 27 3 15 8 1 13 14 9 9 11 10 14 18 15 15 17 24 31 24 29 30 32 32 31 31 32 33 33 33 34 34 35 35 36 36 34 33 32 34 34 34 36 36 36 34 33 32 32 32 30 30 29 29 29
2 2 3 3 1 1 2 2 2 2 1 2 3 4 6 7 7 9 12 17 26 19 9 17 10 7 14 13 11 14 14 12 21 15 14 15 22 16 15 27 32 32 32 31 31 32 33 34 35 35 35 35 36 36 36 36 36 35 34 35 35 36 34 34 34 33 33 31 30 30 30 30 29 30
2 3 3 2 1 1 2 2 2 2 2 2 4 5 5 7 7 7 10 13 21 23 13 13 15 13 15 18 10 14 15 11 7 13 10 12 12 15 15 16 25 29 29 30 31 33 33 33 34 34 35 35 36 35 35 36 35 35 35 33 34 36 36 35 34 32 31 32 30 29 31 32 31 31
2 1 2 2 1 1 2 2 2 2 3 3 5 5 5 7 7 6 9 13 16 26 22 14 14 10 7 19 11 10 15 15 8 11 14 12 12 14 12 11 13 27 29 31 32 33 34 34 34 34 34 35 35 35 35 34 34 34 34 35 32 32 35 35 34 34 31 31 32 31 32 33 33 32
2 3 3 2 0 1 2 3 4 3 4 5 6 7 6 7 7 7 8 11 15 21 23 19 17 15 8 11 15 13 13 13 12 12 13 14 11 12 13 15 13 23 29 31 33 33 34 34 33 33 33 34 34 34 34 35 35 35 35 35 34 35 35 34 31 32 31 31 32 32 31 33 35 33
3 3 3 3 2 2 4 4 4 4 4 5 6 7 8 8 9 8 9 12 13 15 20 22 14 15 15 12 11 10 12 15 14 12 11 11 15 13 11 12 12 18 29 31 32 32 32 32 31 32 32 32 33 33 34 34 35 35 35 35 34 36 37 33 31 30 31 31 32 33 32 34 35 34
3 3 3 3 3 3 5 4 4 4 6 7 7 8 8 9 9 9 10 12 14 16 19 20 17 16 16 13 14 12 14 14 13 14 14 13 13 15 14 11 14 23 31 30 31 30 29 28 30 33 33 32 31 31 31 33 34 36 37 34 33 34 37 36 33 29 30 30 29 30 33 34 34 35
3 4 4 5 5 5 5 5 5 6 8 8 9 11 10 10 10 11 12 12 14 16 19 18 18 17 18 15 16 14 12 15 14 13 16 13 11 13 14 11 9 9 10 9 11 18 23 28 35 35 34 34 34 33 32 33 33 36 33 34 33 33 35 35 33 32 32 30 29 29 30 32 34 34
5 5 5 5 6 6 6 6 6 7 10 9 12 12 12 11 12 12 12 13 14 17 17 20 18 15 18 19 18 17 15 16 13 15 17 18 13 8 11 14 8 8 10 19 28 26 26 30 27 31 34 33 32 32 30 31 35 35 34 35 36 33 34 33 33 33 32 30 29 29 29 30 32 33
6 6 6 6 6 7 7 7 9 9 10 10 12 11 11 11 11 11 11 13 14 15 18 16 19 14 13 18 16 14 13 19 15 11 13 17 18 13 11 12 14 10 10 14 14 16 20 22 26 31 28 25 24 27 27 27 30 32 36 34 34 37 35 33 33 32 32 31 30 30 30 30 31 31
7 7 7 7 8 8 11 15 15 15 14 9 9 9 10 11 11 11 11 11 14 13 15 15 15 16 15 18 14 17 12 15 18 16 12 14 15 14 15 13 11 11 11 11 15 14 12 13 11 8 10 14 19 20 25 23 28 30 31 30 32 32 33 33 31 31 31 31 31 30 30 31 31 31
7 7 7 8 13 14 15 16 18 20 21 23 18 14 12 12 11 11 11 11 10 11 11 12 13 13 15 16 14 16 15 14 17 18 16 15 15 12 16 16 10 11 12 13 14 13 9 8 9 11 13 13 14 13 13 13 19 25 33 32 27 28 31 34 35 33 33 33 31 30 30 31 32 32
7 7 7 7 9 11 13 13 19 20 22 23 24 26 24 21 16 14 14 14 12 13 15 13 13 14 15 17 15 11 18 11 16 14 15 15 13 13 14 18 11 7 10 14 13 10 4 7 12 11 12 12 13 12 12 25 29 31 31 30 29 28 27 28 30 31 32 31 30 30 30 31 32 32
6 7 8 8 6 6 9 11 12 16 22 24 25 25 24 24 25 25 19 17 15 14 14 16 16 15 17 19 22 14 14 16 17 17 16 17 15 21 18 20 19 7 9 10 11 17 12 8 12 14 12 12 11 13 23 30 30 32 32 30 30 30 30 26 24 25 28 29 30 30 30 32 32 32
7 6 7 7 7 7 16 14 14 15 15 20 26 27 28 28 28 27 30 30 22 17 17 18 21 18 16 15 18 16 16 15 19 17 14 15 16 18 22 20 19 9 1 9 15 19 18 5 10 15 15 10 10 15 22 28 29 30 31 31 31 32 28 23 23 23 25 28 30 31 32 33 33 32
4 7 6 7 8 9 10 11 13 14 15 15 15 14 13 14 18 23 25 27 31 28 20 19 21 23 19 20 21 20 18 21 17 15 16 17 15 16 20 22 20 19 11 13 15 16 21 7 12 17 16 9 10 11 20 28 29 30 31 31 30 28 25 25 24 26 28 28 30 32 32 32 32 32
7 7 8 9 10 10 11 11 15 15 14 13 11 12 13 13 14 15 15 14 12 15 18 21 23 24 25 22 25 23 20 17 18 17 18 18 17 16 20 17 19 16 10 10 12 17 21 3 9 15 11 12 11 12 18 28 31 32 31 31 29 30 26 25 27 29 30 30 29 30 32 32 32 32
7 7 9 10 10 11 12 15 21 19 16 14 15 16 16 16 15 12 13 23 25 23 19 16 16 15 18 25 23 22 19 16 16 17 18 16 13 14 17 19 17 15 8 9 12 12 17 8 12 15 13 11 14 14 12 22 30 31 32 31 30 30 29 27 30 30 29 28 29 29 30 31 32 32
7 8 10 11 10 10 11 15 20 21 21 14 16 17 16 13 13 13 13 20 25 26 28 31 33 35 36 36 37 36 39 31 24 18 17 16 9 11 12 16 16 14 9 7 12 12 16 12 11 14 12 8 13 13 14 15 22 29 31 30 29 28 28 30 30 29 28 28 28 28 28 30 31 33
7 9 16 14 11 11 12 17 20 22 18 14 14 14 15 16 14 12 12 12 15 25 29 30 29 30 31 33 37 39 37 36 29 17 17 13 10 15 15 16 17 13 11 9 8 11 15 10 10 12 12 11 11 13 13 16 16 22 24 29 30 30 30 31 27 23 24 28 28 28 28 28 29 25
7 8 10 13 12 12 14 20 20 22 19 13 13 14 14 14 13 11 11 14 15 12 12 13 15 18 22 21 20 22 34 34 30 20 16 15 13 16 15 15 12 14 12 7 8 12 14 11 12 9 11 11 12 8 12 12 13 12 11 14 17 26 24 21 20 23 25 27 28 27 28 27 27 18
6 5 5 7 12 16 18 19 21 21 23 15 13 13 12 13 16 14 15 15 15 15 15 17 18 18 17 17 18 18 18 20 19 20 17 14 14 15 15 13 13 15 13 6 7 9 11 9 12 8 11 14 17 12 7 12 12 12 11 11 8 13 15 18 19 24 25 26 29 31 29 27 28 18
4 4 5 5 11 16 17 19 21 21 21 20 13 11 11 12 17 22 15 16 22 15 15 14 15 15 16 16 16 17 17 16 15 16 17 17 16 15 14 14 15 16 16 11 16 12 16 10 12 7 11 12 14 14 11 10 12 12 10 9 11 11 10 11 10 11 15 23 27 30 30 29 33 26
1 4 7 6 11 16 18 20 20 20 19 21 12 11 19 25 26 19 14 13 13 12 12 11 12 11 11 14 15 15 15 16 17 16 14 14 16 15 15 16 15 15 15 12 22 17 15 13 13 12 12 13 15 12 16 13 12 12 11 12 12 12 11 11 10 11 11 11 13 17 21 30 30 35
1 5 7 9 14 16 18 18 18 18 20 16 12 21 23 23 26 20 10 12 11 11 11 13 11 12 14 15 15 14 15 16 16 17 17 17 16 15 15 16 18 17 18 14 13 15 16 16 11 15 14 13 16 14 14 16 12 8 11 11 12 11 10 9 11 12 12 12 13 23 26 29 31 33
1 5 7 8 15 17 16 16 16 16 16 13 19 21 22 22 20 11 11 10 11 12 12 12 12 12 13 15 14 14 16 17 18 18 17 16 17 18 18 18 17 16 19 17 16 16 16 17 15 14 15 16 16 18 16 11 13 10 12 10 11 11 11 10 11 12 13 12 12 14 14 15 19 23
4 7 10 13 14 13 13 15 15 13 15 18 19 21 22 20 9 10 9 11 11 12 12 11 12 12 14 15 16 17 18 20 19 16 15 14 15 13 14 18 17 19 16 15 17 18 18 17 15 13 15 15 16 17 15 16 12 12 11 11 12 11 11 11 11 12 12 13 13 14 15 15 16 19
5 6 8 10 10 10 10 8 6 6 8 16 19 20 19 9 9 8 9 10 11 11 12 12 13 14 15 15 17 19 18 16 14 14 14 13 12 11 13 15 15 13 15 17 19 19 19 18 18 16 16 17 17 18 16 16 15 15 15 15 16 14 13 12 13 13 13 13 12 12 14 15 18 17
3 4 4 5 8 8 12 13 13 12 13 10 10 8 8 8 8 9 8 9 11 12 12 13 13 14 15 16 15 14 13 14 15 15 13 14 14 14 14 16 19 16 16 16 16 17 18 19 19 18 18 17 17 18 17 16 18 17 16 14 12 12 11 7 9 10 10 11 12 12 15 15 18 20
1 1 4 6 4 5 5 6 4 5 5 7 8 8 8 8 9 11 17 16 10 10 12 13 14 14 14 14 14 13 12 12 13 11 13 13 15 15 15 17 18 16 16 16 16 18 18 19 18 17 19 17 18 17 16 17 18 17 17 14 12 13 14 14 13 13 13 11 11 13 14 15 19 17
2 1 1 3 4 3 5 5 6 6 7 7 7 9 9 8 8 8 7 9 10 11 11 13 13 15 14 14 13 13 13 12 12 12 13 13 13 15 13 17 17 16 17 17 16 16 15 15 18 19 17 18 19 19 18 17 16 16 15 13 12 14 14 13 12 14 12 10 12 12 14 15 17 18
2 1 1 3 4 4 5 6 6 7 7 8 8 7 10 10 9 9 9 9 10 11 12 13 13 14 14 14 13 13 14 14 12 13 16 15 13 15 14 16 16 15 16 17 16 16 16 15 14 15 17 18 17 18 18 17 17 15 13 11 12 14 15 11 12 14 12 11 12 12 14 15 17 17
1 0 1 3 3 4 4 5 6 7 8 8 8 9 8 8 10 11 9 10 11 12 12 13 13 14 14 14 13 14 15 15 15 12 10 12 13 13 14 15 15 15 15 16 16 16 16 16 14 15 14 13 14 16 20 19 15 15 12 13 12 14 14 11 12 12 12 12 10 12 14 16 15 16
0 0 1 3 4 4 4 5 7 7 8 8 8 9 10 10 9 10 11 12 12 13 13 13 14 14 14 14 14 14 15 15 14 13 13 12 13 14 13 14 16 16 15 16 16 14 14 16 16 16 15 13 13 14 12 23 25 15 14 15 13 14 14 12 12 12 11 12 11 12 13 15 14 15
0 1 2 3 4 3 5 6 6 7 7 8 8 8 9 10 11 11 13 15 12 12 13 14 14 15 15 14 14 14 15 14 14 14 13 13 13 14 15 15 15 15 17 17 15 16 15 15 16 15 16 14 15 15 13 4 22 29 16 16 15 14 13 11 11 12 12 13 13 13 14 16 14 15
1 1 2 3 3 4 4 5 6 7 8 8 8 9 9 9 10 12 13 12 12 12 13 13 14 15 15 14 14 14 14 14 14 14 14 13 14 14 14 16 15 15 15 15 15 15 14 16 16 16 15 16 14 14 12 10 7 13 25 18 14 14 10 10 12 13 13 11 13 14 13 16 15 15
1 1 2 4 4 4 5 6 6 7 8 8 8 9 10 10 10 11 11 12 13 13 13 14 14 15 16 14 13 14 15 15 15 14 14 14 14 15 16 15 16 15 14 16 14 14 15 15 16 14 14 14 15 13 10 11 12 7 14 29 18 13 11 11 13 12 12 12 12 13 14 16 14 18
2 2 3 2 4 4 6 6 6 7 7 8 8 8 9 11 11 11 12 13 12 14 14 14 17 16 14 13 14 14 14 16 15 15 15 15 16 16 15 13 14 15 16 17 17 16 15 16 15 15 14 14 14 14 13 13 12 10 10 15 27 20 13 9 12 12 12 13 12 11 13 12 14 15
2 2 2 2 4 5 6 6 6 7 7 7 8 9 10 10 11 11 11 14 14 14 14 14 14 15 14 14 14 14 16 16 15 15 15 15 15 15 18 20 16 13 15 19 17 17 18 16 17 25 24 19 18 14 13 13 15 13 12 12 15 25 25 21 16 13 14 12 10 12 13 12 13 15
2 3 4 4 5 6 6 7 7 6 7 7 8 9 10 10 10 18 16 16 15 14 13 14 14 13 13 14 14 14 14 15 15 15 15 15 16 15 17 14 14 15 15 18 18 17 17 16 17 16 15 16 16 16 16 13 15 13 12 10 9 15 23 28 29 27 20 14 11 12 11 11 12 16
2 3 5 6 5 6 6 7 6 6 7 7 8 9 10 10 10 12 11 13 13 13 14 14 13 13 13 14 14 14 14 15 15 15 16 16 16 17 15 13 15 16 16 16 17 17 18 16 15 14 14 15 16 14 17 15 14 13 12 11 11 9 11 19 27 31 31 31 25 19 12 10 12 15
3 4 5 5 6 7 6 6 6 6 7 7 8 9 9 10 11 12 12 12 13 14 14 15 14 13 14 14 14 14 13 13 14 16 17 16 16 16 15 16 18 17 16 15 16 15 13 14 13 13 14 16 14 14 16 15 14 13 12 12 9 10 13 10 10 18 24 29 33 34 35 22 19 16
5 6 6 6 6 7 7 6 6 6 6 7 8 8 9 10 11 12 12 13 13 15 15 15 13 13 14 15 15 15 15 17 17 14 15 15 14 15 15 16 17 18 16 14 15 17 15 15 15 13 15 17 15 15 16 15 14 12 12 12 14 13 12 10 10 10 10 11 21 30 33 28 23 23
Wind_Direction
237 245 243 241 250 247 223 234 226 235 254 258 252 253 260 283 289 303 310 296 288 303 85 316 182 27 315 319 321 320 311 306 305 299 300 301 302 306 303 297 293 292 293 293 291 290 289 290 290 291 291 290 290 289 287 283 281 280 277 280 274 269 269 270 272 270 270 270 273 272 271 273 269 244
222 239 248 244 251 245 231 232 260 281 263 268 257 253 253 256 268 283 292 294 289 322 288 163 298 316 309 321 312 306 304 309 307 301 300 304 304 300 296 294 294 294 292 289 288 287 287 287 287 287 286 286 285 285 285 284 283 281 276 271 271 271 270 268 268 268 269 272 270 267 268 266 264 251
223 235 242 243 241 248 284 349 346 329 295 272 264 250 255 253 257 273 278 287 286 337 296 298 237 306 312 319 317 316 307 308 306 302 302 300 295 294 293 292 291 290 289 288 287 287 286 286 286 286 285 283 283 281 280 281 281 282 279 274 268 264 267 267 267 267 269 271 273 272 267 262 258 254
225 248 261 263 279 353 22 9 347 333 318 312 299 287 274 266 260 263 265 267 278 291 294 300 310 320 319 314 315 307 304 302 297 293 292 295 298 295 295 292 288 287 287 288 287 287 286 285 285 284 283 282 280 279 277 276 276 278 279 274 270 264 262 266 266 267 267 267 268 270 270 265 261 258
236 249 254 271 305 22 350 332 337 315 305 303 288 286 284 279 281 280 280 281 286 291 292 293 300 312 317 303 322 305 300 300 297 298 290 293 291 288 281 279 282 284 285 286 287 286 285 283 281 281 280 280 279 277 275 274 272 271 272 272 273 270 265 263 267 265 264 264 265 264 266 266 261 259
226 235 263 278 310 343 307 305 290 288 283 276 274 263 265 268 268 271 277 280 282 286 299 295 297 294 306 293 306 302 305 303 300 297 298 285 276 276 279 280 281 286 286 285 285 284 284 283 282 280 280 279 277 276 275 273 271 269 266 269 272 276 273 266 266 266 265 264 264 263 263 264 261 257
219 234 245 260 33 313 292 274 269 262 264 264 263 263 256 260 260 259 262 273 277 282 288 296 299 298 287 270 296 302 294 287 291 286 282 290 286 276 275 276 274 280 284 286 284 284 283 284 282 281 279 277 276 275 274 272 271 267 266 267 270 271 272 269 268 269 266 263 262 260 259 261 260 255
214 239 258 261 244 244 264 264 264 254 257 258 258 256 252 250 252 251 250 250 261 272 279 287 286 291 298 287 282 284 284 287 291 284 277 266 276 277 270 269 275 280 284 284 284 283 283 282 283 283 280 278 277 273 271 271 269 268 265 263 262 262 267 267 261 262 265 265 262 260 258 259 258 257
225 231 237 240 238 247 254 258 256 262 262 260 256 257 255 251 248 242 239 243 245 255 265 277 280 283 280 284 288 288 293 290 285 286 278 277 274 277 273 266 271 278 282 284 284 283 282 285 292 292 288 282 279 276 274 271 269 266 265 262 258 258 261 262 262 262 263 262 261 258 258 257 255 254
229 235 236 240 244 240 246 256 257 258 261 260 258 256 253 249 246 242 239 240 247 252 260 266 278 280 284 285 281 283 280 287 291 289 285 269 254 267 275 266 263 263 269 272 278 287 288 287 285 283 283 282 281 282 281 279 277 273 266 261 258 256 256 257 258 259 258 258 257 256 254 254 254 252
233 234 231 227 235 237 239 250 254 260 258 252 249 248 250 244 244 245 248 248 250 256 257 265 261 268 276 276 279 284 280 279 276 284 291 290 279 240 262 279 267 261 272 274 277 278 281 283 282 280 279 275 274 277 282 286 283 271 268 267 263 257 254 253 253 254 254 254 253 253 252 251 253 250
238 238 239 239 237 242 244 246 251 247 252 251 253 249 247 244 243 243 244 251 251 254 255 254 264 257 268 275 269 278 277 286 276 268 277 285 293 289 263 261 279 274 268 277 275 273 275 275 275 274 274 281 289 292 291 294 302 294 269 261 261 260 255 252 252 252 251 250 249 248 249 251 250 249
240 240 237 236 236 240 251 259 263 258 254 248 245 236 217 229 237 244 248 249 253 252 253 258 257 265 268 265 268 276 264 273 270 287 273 272 273 281 282 266 249 260 268 269 272 270 264 265 262 282 295 288 286 289 292 292 289 290 291 273 254 255 256 254 253 252 251 249 247 245 246 249 250 247
237 243 254 258 268 275 276 276 275 277 278 277 278 279 278 273 267 261 258 253 245 244 248 247 254 254 254 260 258 267 262 270 270 279 273 269 277 276 275 273 246 255 258 266 264 263 253 263 284 282 276 277 280 283 284 281 283 284 284 283 276 261 255 254 255 252 250 249 244 243 243 246 248 247
256 257 260 265 272 281 282 280 278 280 280 278 278 280 280 278 277 278 277 273 267 268 267 270 263 258 264 269 265 258 278 265 273 276 278 275 281 281 283 288 282 198 255 267 269 262 238 269 277 276 273 276 278 273 274 282 282 278 275 273 270 271 265 257 251 248 246 245 243 241 240 243 245 245
255 271 277 276 277 274 277 273 275 277 277 279 281 282 283 283 281 277 275 279 277 274 277 275 271 272 266 277 279 277 275 278 280 273 277 278 282 284 280 281 280 282 251 268 287 286 276 266 270 275 270 273 274 279 282 283 279 276 271 267 269 269 266 265 264 260 253 246 242 241 240 240 241 241
262 272 282 285 275 271 274 278 274 271 269 269 272 276 277 277 277 280 278 276 276 283 282 282 283 277 282 277 274 276 276 275 277 278 272 272 274 276 278 278 279 264 143 305 291 286 284 236 269 277 271 264 265 275 279 278 275 273 268 266 265 265 265 270 273 273 265 255 246 240 237 237 238 237
278 282 275 271 271 266 266 266 269 270 272 275 275 270 262 257 260 265 271 278 280 279 277 276 276 278 276 273 276 272 269 271 268 268 267 264 265 265 265 271 269 270 259 264 282 283 277 264 275 272 274 265 265 262 270 276 280 277 268 263 261 265 270 271 272 271 270 264 250 241 236 234 234 233
267 265 261 263 265 269 268 265 270 279 280 278 281 285 287 282 281 273 267 265 262 263 267 266 267 271 274 271 275 276 271 250 253 254 257 256 255 259 267 267 264 269 239 230 252 264 277 246 256 263 268 276 266 268 277 281 280 278 272 267 264 265 266 271 269 268 265 262 256 242 236 232 231 230
250 249 255 258 262 265 268 270 281 289 296 298 295 289 282 277 276 273 277 286 287 285 283 278 277 275 275 276 275 276 273 260 257 259 258 259 254 258 260 262 267 266 246 201 238 253 270 259 263 272 269 268 273 271 265 276 277 275 272 267 263 260 266 266 265 264 263 260 255 244 236 232 229 228
246 250 253 255 262 268 271 287 296 298 300 296 289 284 286 289 292 289 286 287 292 294 292 290 288 286 286 286 286 286 285 283 282 281 274 261 249 249 255 260 263 262 272 218 218 243 264 258 259 270 266 260 269 271 272 270 268 266 263 261 260 262 265 261 263 262 262 262 256 248 237 231 227 224
243 246 260 271 275 284 292 296 298 298 297 290 294 301 301 297 290 286 298 298 289 283 279 284 290 295 296 294 292 290 288 287 285 277 270 276 280 271 268 275 277 281 269 258 212 241 250 268 250 266 273 267 248 260 264 266 264 259 257 256 256 259 256 259 258 262 271 271 263 249 239 230 223 221
245 248 252 273 286 294 297 298 298 297 302 304 306 306 300 297 296 298 300 294 288 294 310 308 304 294 290 289 287 284 285 283 281 272 270 275 262 262 263 264 276 275 260 242 219 251 263 260 254 249 275 271 264 232 261 267 264 258 249 246 250 250 252 252 260 264 266 267 267 257 241 230 221 217
251 255 285 299 297 296 295 295 298 305 310 310 307 306 304 302 299 298 292 297 311 319 314 306 304 300 297 295 291 286 281 274 266 265 255 251 252 254 259 258 255 262 269 243 253 273 276 270 276 269 278 287 288 279 267 280 279 279 260 247 237 246 253 264 265 264 262 265 264 259 246 230 218 214
261 301 297 307 293 291 292 298 308 312 313 312 311 312 301 292 294 305 310 316 321 311 302 295 300 304 307 303 299 295 295 289 280 268 257 254 253 250 255 255 253 257 259 252 252 248 261 251 257 245 249 252 261 281 272 266 265 257 259 261 267 263 255 255 253 256 259 261 265 261 246 229 216 211
298 301 297 286 284 288 299 309 312 313 312 313 316 299 298 303 310 312 316 318 307 298 298 299 300 303 302 303 301 296 294 298 299 293 273 252 244 241 241 246 250 255 257 245 247 250 257 256 246 248 247 251 262 252 274 261 258 259 248 249 247 253 250 252 247 255 258 264 269 264 243 226 215 211
319 308 282 277 279 298 308 311 312 312 313 316 303 303 309 311 314 318 314 300 298 296 300 303 300 302 304 304 301 295 297 297 297 299 301 301 297 285 271 255 251 254 260 254 240 240 245 256 238 248 252 250 262 260 253 264 259 236 247 240 244 242 243 242 254 262 262 264 266 267 248 222 213 210
336 285 268 272 298 309 310 310 312 314 315 308 306 310 313 316 320 315 303 299 298 297 297 300 300 300 303 303 299 300 302 301 301 298 294 290 287 288 290 284 270 261 258 254 247 240 239 246 244 234 239 246 254 257 262 252 261 255 258 259 250 250 246 247 254 259 261 259 265 265 247 221 208 208
251 270 285 304 308 308 312 314 317 315 309 307 310 313 316 319 311 304 298 298 298 298 299 300 300 299 302 300 298 300 301 301 299 292 286 282 277 274 268 270 268 269 266 260 250 245 241 240 240 233 238 237 245 250 252 259 259 262 250 258 259 242 242 241 243 249 258 262 262 260 250 218 206 202
332 340 321 317 315 317 314 315 306 288 298 308 312 312 312 304 296 292 297 297 299 298 302 300 300 301 301 300 300 298 297 298 294 295 291 293 288 291 287 286 278 263 260 255 249 247 243 242 241 236 239 240 240 246 245 250 251 251 254 251 257 266 249 246 248 250 251 253 256 266 262 223 207 196
38 340 331 309 310 314 309 310 308 306 306 302 297 289 289 289 290 290 285 296 301 301 299 299 296 299 298 295 293 293 293 290 290 295 292 295 296 298 294 290 288 287 279 277 270 253 243 240 237 234 238 240 240 239 242 245 251 253 254 247 244 246 257 227 229 240 248 254 271 268 274 235 209 197
79 348 317 319 305 296 296 297 287 280 280 288 294 291 290 287 286 295 301 300 289 288 292 294 296 293 295 293 291 290 285 285 284 289 291 296 294 293 294 289 286 289 290 286 279 266 247 239 234 232 233 235 240 241 238 240 244 248 251 245 243 251 258 263 261 259 252 263 268 272 271 248 212 196
63 22 326 295 305 306 302 303 305 306 305 298 290 292 295 298 300 298 291 298 300 298 298 298 298 297 296 294 291 290 289 286 289 292 291 288 289 291 284 283 286 290 293 290 287 281 270 250 232 231 231 232 235 238 244 245 243 244 246 249 248 251 255 244 251 255 260 256 260 266 276 255 217 195
106 283 321 296 301 303 308 310 310 310 307 301 302 296 308 306 300 298 302 300 298 300 299 298 298 298 297 294 296 296 295 293 289 292 297 294 291 289 288 285 283 284 284 284 284 284 280 268 255 238 232 234 234 232 233 239 246 245 239 246 241 250 248 249 243 247 247 248 256 270 268 265 219 194
150 235 314 300 302 288 289 295 298 301 299 300 303 307 305 299 302 307 304 303 302 303 301 299 297 297 298 295 298 300 300 298 296 294 289 289 290 285 286 283 284 285 283 282 281 282 288 287 275 257 242 233 233 234 226 228 241 239 244 240 243 243 251 238 246 244 243 246 243 251 266 264 226 193
261 200 258 283 280 295 309 299 296 293 297 300 304 304 306 306 306 309 308 307 308 303 301 301 302 302 299 296 298 301 300 297 298 298 298 295 293 290 283 280 283 282 280 277 280 281 276 276 275 268 257 247 242 243 238 214 219 234 234 245 236 243 243 243 238 244 239 245 233 236 250 254 230 194
178 255 242 259 284 294 287 291 293 295 296 297 297 298 300 307 311 308 303 306 301 298 298 301 303 303 299 297 300 302 302 301 300 301 297 296 290 291 289 285 279 281 282 278 278 280 281 279 274 264 258 254 250 251 251 209 212 213 223 232 242 236 238 237 240 241 238 234 242 231 238 250 227 196
213 253 285 275 269 278 286 289 293 291 293 294 296 300 300 301 302 302 304 305 302 300 301 303 303 302 298 300 306 306 304 300 300 299 298 298 297 293 291 290 288 285 282 279 276 274 271 270 269 274 267 256 255 252 258 246 246 220 213 220 233 240 224 233 237 242 244 230 234 238 234 244 221 195
253 257 269 281 290 301 294 290 286 288 291 294 300 302 306 304 301 302 304 301 302 301 305 307 304 302 300 303 305 307 307 308 306 304 301 299 295 294 292 286 282 284 283 281 278 273 270 268 268 264 260 261 257 255 255 261 251 242 210 212 223 234 232 222 236 238 242 245 239 240 245 238 218 186
247 244 252 271 289 285 279 277 279 281 290 295 298 301 302 303 302 302 302 302 303 308 307 304 303 301 299 303 310 310 306 303 303 303 302 300 297 287 283 282 284 289 288 282 280 274 268 264 262 262 268 267 266 258 255 252 258 245 242 216 212 219 233 231 237 240 244 237 239 248 243 219 198 178
242 256 273 265 270 272 269 273 274 284 291 296 299 300 299 294 298 297 297 306 310 308 306 302 298 297 299 307 311 312 310 308 305 304 303 300 296 294 292 294 289 283 284 282 277 273 268 262 269 278 285 291 284 269 253 247 244 245 242 240 223 219 224 226 235 237 241 238 232 241 238 210 183 172
267 283 285 278 268 274 274 277 284 290 297 302 303 300 296 297 290 304 308 306 303 300 300 301 300 301 303 311 313 313 309 307 306 305 305 304 302 296 293 289 285 288 282 278 278 272 273 276 281 282 280 275 273 260 249 243 252 252 247 246 240 223 221 225 227 231 233 235 234 240 229 196 181 178
291 293 287 282 277 275 277 281 284 291 297 301 300 297 297 298 301 306 306 307 307 305 304 303 301 304 311 315 315 312 306 306 306 302 304 305 304 301 297 290 289 285 279 276 274 276 276 277 274 272 269 266 263 260 259 255 256 256 258 253 250 250 239 224 225 228 230 233 233 238 247 204 182 181
273 273 276 273 280 282 281 281 287 289 294 293 293 295 297 302 305 307 306 306 307 307 306 306 305 309 315 317 313 311 308 305 305 308 307 307 303 300 295 291 289 287 283 278 280 275 275 273 268 265 264 259 257 259 256 257 254 254 257 256 260 256 253 252 232 232 233 232 232 234 245 248 203 187
263 260 268 279 277 280 280 283 287 290 289 289 293 297 301 302 302 303 304 305 304 305 306 303 304 312 317 318 319 316 313 313 311 304 305 304 303 303 299 296 296 293 286 282 278 277 274 272 271 263 259 257 254 250 254 250 253 254 250 248 254 249 255 250 245 233 220 231 232 233 235 247 232 189